EHI
0 0 0 1 0 0 0 0 0 0 0 0 1 2 1 0 0 0 0 0 0 1 1 2 3 3 4 4 4 3 3 3 3 3 3 3 3 3 3 3 2 2 3
0 0 1 1 1 0 0 0 0 0 0 1 2 2 1 0 0 0 0 0 1 2 4 4 3 3 4 5 5 4 3 3 4 4 3 3 3 3 3 3 3 3 4
0 0 1 1 1 0 0 0 0 0 0 1 1 1 0 1 1 0 0 0 1 3 7 7 5 4 5 5 6 5 5 5 6 6 5 4 4 4 4 4 4 4 4
0 0 0 0 0 0 0 0 0 0 0 0 1 1 1 1 1 0 0 0 0 2 5 7 7 6 6 5 5 6 7 8 9 10 8 6 5 5 5 6 5 4 3
1 1 0 0 0 0 0 0 0 0 0 0 1 2 1 1 1 1 0 0 1 1 3 5 7 7 6 4 3 4 6 9 11 13 12 10 7 6 6 6 6 3 2
2 2 1 1 0 0 0 0 0 1 1 2 2 3 2 1 2 3 2 1 2 2 3 4 5 5 4 3 3 4 6 9 12 13 13 12 9 6 5 5 5 3 1
3 3 3 2 1 1 0 0 0 1 2 3 3 3 1 1 2 3 2 2 2 2 2 3 3 4 4 4 3 4 6 8 9 10 12 12 8 5 4 4 4 3 1
1 2 3 3 2 1 0 0 1 1 3 4 3 3 1 1 2 2 2 2 1 1 1 1 2 2 3 3 3 4 4 5 7 8 9 9 7 4 2 2 2 2 1
1 1 1 1 1 0 0 1 2 3 4 4 4 3 2 2 2 2 2 2 2 1 0 0 1 1 1 2 3 3 3 4 5 5 5 6 5 2 1 1 1 1 0
2 1 0 0 0 0 1 2 3 4 4 3 3 2 2 2 2 1 1 2 3 1 0 0 0 0 0 3 4 3 2 2 3 3 3 3 3 1 0 0 0 0 0
1 1 0 0 0 1 2 3 4 4 3 2 1 1 1 1 1 0 0 1 1 0 0 1 2 1 1 2 3 2 0 0 1 3 3 3 2 1 0 0 0 0 0
0 1 1 1 2 2 4 5 5 4 3 2 1 1 1 1 2 1 1 1 1 0 0 1 3 4 2 2 2 1 0 0 1 2 3 2 1 0 0 0 0 0 0
1 2 3 3 4 5 6 6 6 5 4 4 4 3 3 3 4 3 2 2 2 1 1 2 3 5 5 4 3 1 0 0 1 2 2 1 0 0 0 0 0 0 0
3 3 4 5 6 6 7 7 7 6 6 5 3 3 4 6 7 5 4 3 2 2 1 1 2 5 5 4 3 2 2 2 1 1 1 1 0 0 0 0 0 0 0
4 5 4 5 6 6 7 7 6 6 6 5 3 4 5 7 9 8 6 5 4 2 1 1 2 3 3 3 2 2 3 3 2 0 0 0 0 0 0 0 0 0 0
5 6 6 5 5 5 7 7 6 6 6 5 5 6 6 8 8 8 6 6 5 3 1 2 3 3 3 2 1 2 3 2 1 0 0 0 0 0 0 0 0 0 0
6 7 7 7 6 5 6 7 6 5 5 4 5 6 7 7 7 5 5 5 6 4 2 2 3 3 4 2 0 1 1 1 0 0 0 0 0 0 0 0 0 0 0
7 8 8 8 7 6 7 7 5 4 4 3 4 5 6 5 4 3 2 3 4 4 2 2 3 3 3 2 1 1 1 2 1 0 0 0 0 0 0 0 0 0 0
10 10 11 9 7 6 7 6 4 3 3 3 4 5 5 4 2 1 0 1 2 3 2 2 3 3 2 2 2 3 4 4 1 0 0 0 0 0 0 0 0 0 0
12 13 12 10 7 6 6 5 4 3 4 4 4 5 4 3 2 0 0 0 1 3 4 2 2 2 2 2 3 3 4 5 3 2 2 1 0 0 0 0 0 0 0
13 13 13 11 8 5 5 4 4 5 6 5 5 4 3 1 1 0 0 0 1 3 3 1 1 1 2 3 2 1 2 4 4 5 5 3 1 1 1 0 0 0 0
13 13 13 11 7 5 5 4 5 7 8 7 6 4 2 0 0 0 0 0 0 1 1 1 0 0 1 1 0 0 0 2 4 5 6 5 4 4 3 1 0 0 0
15 14 13 11 8 6 4 3 4 7 8 8 7 4 2 0 0 0 0 0 0 0 0 1 0 0 0 0 0 0 0 1 2 4 5 6 6 6 4 2 0 0 0
14 14 13 12 10 6 3 1 2 5 6 5 5 4 2 1 0 0 0 0 0 0 0 0 0 0 0 0 0 1 1 1 1 3 5 7 7 7 5 3 1 0 0
11 12 13 13 11 6 2 0 1 3 4 3 3 3 2 1 0 0 1 1 1 0 0 0 0 0 0 0 0 1 2 2 2 3 6 7 7 9 8 5 2 0 0
9 10 12 12 10 6 2 0 1 2 3 3 3 3 1 0 0 1 2 2 1 0 0 0 0 0 0 0 0 0 1 3 4 5 5 6 8 11 11 7 3 1 0
Wind_Speed
1 1 1 0 1 1 2 2 1 1 1 2 2 2 2 1 2 2 4 7 6 5 5 6 5 6 6 6 7 6 6 6 6 6 6 6 6 6 6 7 7 7 8
1 1 2 1 1 1 0 0 0 1 1 1 1 1 1 1 2 2 3 6 8 6 6 6 5 5 5 5 6 6 6 6 6 6 6 6 6 6 6 7 7 8 8
1 1 1 1 1 1 1 1 1 1 2 1 1 1 2 2 2 2 2 2 5 8 7 6 5 5 5 5 5 6 6 6 6 6 6 6 6 6 6 7 8 8 8
1 1 1 0 0 1 1 1 2 1 1 1 1 1 1 1 2 3 3 3 2 3 7 8 6 6 6 5 5 6 6 7 7 6 6 6 6 6 6 7 8 7 7
1 2 0 0 2 1 1 2 1 1 1 1 1 1 1 1 2 2 2 2 2 2 2 7 8 6 6 6 6 6 6 5 5 6 6 5 6 6 6 6 7 7 7
1 2 1 0 2 1 1 1 1 1 1 1 2 1 1 1 1 1 2 2 2 3 2 2 4 6 8 6 5 6 6 6 5 6 6 6 5 5 6 6 7 7 7
1 2 1 1 2 1 2 2 2 2 1 1 1 1 2 2 1 1 2 2 2 2 2 2 2 2 4 8 6 5 5 6 6 6 5 5 5 5 5 6 7 7 7
2 2 2 2 2 1 2 2 2 2 1 1 2 2 2 3 3 2 2 3 2 2 2 2 1 2 2 2 4 6 4 4 5 5 5 5 4 4 5 5 6 7 7
2 1 1 2 2 3 1 2 3 3 2 2 2 3 2 1 1 2 2 1 1 1 2 1 2 2 2 2 2 6 4 3 5 5 5 5 5 5 5 5 5 6 6
1 1 1 2 2 2 2 3 2 2 3 3 2 2 3 2 2 1 2 2 2 2 1 2 1 2 2 2 1 3 4 3 4 4 5 5 5 5 4 5 5 6 7
1 1 1 1 2 2 1 2 2 3 3 3 2 2 2 2 4 3 1 2 2 1 1 2 2 1 1 1 2 4 4 2 3 3 4 5 6 6 5 5 4 6 7
1 1 1 2 2 2 2 2 3 3 3 3 3 3 3 2 3 3 3 3 2 1 1 1 2 1 1 1 1 4 3 3 3 3 3 4 5 5 6 6 6 6 6
1 1 2 2 2 2 3 3 3 3 3 3 3 3 3 3 3 3 3 3 2 2 2 2 1 1 1 1 1 3 4 3 3 3 3 3 4 5 5 5 6 6 7
1 1 2 3 3 3 3 3 3 3 2 3 3 3 3 3 2 3 3 3 3 3 2 2 1 1 1 1 2 4 3 4 3 3 4 4 4 4 4 4 4 5 5
2 2 3 3 2 2 3 3 2 3 2 3 3 3 3 2 3 3 3 4 4 4 2 2 2 2 2 1 1 3 2 4 4 5 5 4 4 4 4 4 4 5 5
2 2 2 2 2 3 3 4 3 2 3 3 2 2 3 3 2 3 3 3 3 4 3 1 2 1 2 2 2 3 3 6 6 6 5 5 5 5 5 4 4 5 5
2 3 3 3 3 3 3 3 3 3 3 2 3 2 3 3 3 3 2 3 3 3 4 2 1 1 1 3 1 3 4 4 4 7 6 5 5 5 5 5 5 5 5
3 3 3 3 3 3 3 3 4 3 3 3 2 2 3 2 2 3 3 3 2 3 4 3 2 2 2 3 2 4 4 3 3 7 8 7 6 6 5 5 5 5 6
3 3 3 3 3 2 2 3 3 3 3 3 2 2 2 2 3 2 3 3 3 3 3 4 3 2 2 2 2 4 3 3 5 5 8 9 7 7 6 6 5 5 6
3 3 3 2 2 2 2 2 2 2 2 2 2 2 3 3 3 3 3 3 4 4 3 4 3 2 2 2 2 3 3 2 4 3 2 4 6 9 8 6 5 6 6
3 2 2 2 2 2 2 2 3 3 2 2 2 2 2 1 3 3 4 3 3 4 4 4 3 3 2 2 3 3 3 3 3 3 3 3 4 5 6 7 6 6 6
2 2 2 2 2 1 3 2 3 3 2 2 2 2 2 2 2 3 2 3 4 4 4 4 3 3 3 3 3 4 4 4 4 2 4 5 4 4 4 4 5 7 7
2 2 2 2 2 1 2 0 2 3 2 2 2 2 3 1 2 2 3 4 4 3 4 5 5 4 3 3 4 6 4 5 5 3 4 5 4 4 4 3 8 8 7
2 2 2 1 1 1 2 0 2 3 2 2 2 2 2 2 2 3 4 3 3 3 4 5 4 4 4 4 5 6 6 6 6 4 3 6 4 4 4 3 9 9 8
2 2 2 2 2 1 2 1 2 2 2 2 2 2 2 2 2 3 4 4 4 3 3 3 3 4 4 4 5 5 5 5 5 4 2 5 4 4 4 5 5 10 9
2 2 2 2 2 1 3 2 2 2 2 2 2 2 2 0 1 2 4 4 4 4 4 3 4 6 6 6 6 6 6 6 6 5 1 3 5 4 4 4 3 4 6
Wind_Direction
154 148 138 169 177 160 185 196 211 200 241 208 204 190 200 181 175 175 135 156 180 198 207 210 210 213 209 206 207 208 209 211 214 219 219 220 222 217 213 213 211 208 205
151 193 175 183 200 206 161 223 228 238 243 262 225 185 219 194 166 186 165 162 176 191 204 212 213 212 207 206 208 208 209 210 212 217 220 219 216 218 219 217 213 210 206
169 219 184 198 206 224 164 205 208 228 227 217 205 213 209 198 174 180 193 189 173 181 192 203 209 209 210 212 213 212 211 212 212 216 219 218 217 216 221 217 211 209 205
215 248 235 215 254 236 202 193 226 226 253 254 201 241 220 168 181 193 198 199 205 180 175 186 200 207 214 216 219 219 215 213 212 213 220 223 219 215 221 215 205 200 201
231 249 289 25 252 243 239 251 144 255 236 255 240 210 228 200 197 185 187 206 194 205 187 164 185 200 210 217 221 223 220 216 209 212 217 221 219 214 210 203 199 199 200
223 259 203 232 269 258 266 282 248 245 255 260 279 328 263 225 214 171 212 187 189 201 201 187 185 189 198 210 219 222 223 218 212 213 215 216 215 213 207 204 201 201 200
215 235 245 190 263 261 274 261 251 205 222 220 239 220 186 194 189 192 211 209 187 198 198 202 221 218 185 189 201 213 218 224 221 215 210 211 211 212 209 210 208 206 203
228 207 215 232 246 258 250 255 252 265 245 225 276 271 228 183 192 196 202 201 212 212 208 198 193 212 257 203 154 183 208 223 221 211 206 206 210 208 213 213 211 208 204
211 243 221 246 249 255 243 242 239 243 255 240 260 281 285 291 175 185 200 200 222 238 232 211 207 201 225 229 183 163 178 203 209 209 208 207 207 207 213 220 221 210 202
238 216 236 245 257 258 242 248 229 257 258 258 224 257 295 327 285 230 204 178 198 233 261 263 229 203 218 210 141 125 161 187 204 210 210 208 208 209 213 218 221 211 203
221 241 232 260 268 273 282 290 276 266 255 270 270 246 242 234 254 264 259 246 220 226 244 263 264 241 223 222 203 117 140 180 204 212 213 210 209 209 213 215 216 210 203
206 218 223 247 258 278 270 265 270 253 270 280 279 266 252 258 256 253 248 240 240 222 223 243 253 236 230 236 141 110 143 192 203 211 219 216 213 215 216 217 216 213 208
214 210 241 247 262 267 266 268 253 273 265 266 266 270 266 263 276 268 265 262 263 240 216 226 237 240 237 257 144 144 170 185 195 211 223 224 220 220 219 216 217 218 216
257 247 243 245 253 260 259 259 261 256 259 261 264 275 268 262 262 259 266 265 255 243 211 238 244 234 241 250 105 220 183 171 192 214 222 219 217 216 217 218 220 223 222
242 226 243 242 243 249 260 257 263 274 268 257 252 238 255 257 253 252 255 266 272 270 244 208 239 243 244 230 160 239 231 167 194 214 222 221 216 214 213 215 219 225 225
261 247 237 240 241 242 246 255 252 254 256 257 268 283 274 265 266 260 256 261 268 280 282 258 244 255 299 258 180 246 239 176 195 205 210 216 217 214 214 216 221 226 228
240 241 243 242 241 239 244 253 267 263 260 265 267 247 254 283 280 272 262 263 263 270 269 268 266 201 254 277 234 252 239 229 191 182 194 208 215 215 216 219 225 228 228
236 235 241 242 242 238 245 248 260 263 262 263 273 277 271 257 252 273 278 271 269 272 270 272 264 243 240 247 246 257 252 242 243 170 186 200 209 213 213 217 223 224 223
235 236 232 239 248 248 248 252 256 258 262 266 271 277 289 287 279 280 273 271 266 253 259 259 255 268 257 247 251 250 251 267 262 178 186 195 202 212 214 217 224 220 215
221 229 233 231 235 239 248 255 251 254 265 275 284 288 295 297 291 284 264 264 268 267 255 255 258 252 249 230 258 264 254 242 266 262 221 206 195 206 209 210 213 212 210
222 218 226 228 237 230 244 260 255 246 254 263 272 277 287 314 330 309 302 288 276 270 263 260 261 265 273 271 270 274 276 269 250 261 263 235 209 218 207 208 213 210 209
222 213 224 234 245 260 62 21 291 272 263 260 265 272 244 210 214 221 274 307 304 277 281 278 273 277 277 281 293 283 284 280 274 244 266 260 238 235 226 221 179 187 200
202 213 221 237 256 52 80 74 282 269 254 256 258 268 281 318 244 268 231 222 234 242 263 274 282 288 281 285 287 279 278 284 288 290 268 266 250 248 242 196 158 178 197
199 213 227 235 238 133 105 144 274 241 249 249 251 257 272 294 323 307 279 261 260 251 241 245 272 280 290 292 272 272 282 270 260 251 262 273 272 266 266 237 164 180 199
195 209 207 213 219 143 120 158 264 236 225 236 245 264 277 284 25 315 277 266 261 253 221 225 263 269 285 283 287 280 275 272 272 259 227 267 275 276 268 258 191 183 198
199 207 192 191 186 173 141 155 272 251 236 241 222 212 147 283 7 297 274 271 268 275 277 237 232 236 243 240 232 253 273 275 276 274 258 266 275 279 272 263 258 210 213